カタログに戻る

STARLINK-36529

運用中通信VLEO
NORAD 67457·PAYLOAD·🇺🇸 United States

打ち上げ Jan 14, 2026 から Cape Canaveral Space Force Station

Loading…

次のパス (今後24時間)

TLE

最新Source: CelesTrak SupGP

元期: Sep 14, 2026, 21:26 UTC

1 67457C 26008N   26257.89354167  .00024858  00000+0  90052-3 0  2572
2 67457  43.0027 216.8960 0001418 261.8839 192.0118 15.27560814    12

AllMySatでSTARLINK-36529をリアルタイム追跡

Download on the App Store